Date,TemperatureHighF,TemperatureAvgF,TemperatureLowF,DewpointHighF,DewpointAvgF,DewpointLowF,HumidityHigh,HumidityAvg,HumidityLow,PressureMaxIn,PressureMinIn,WindSpeedMaxMPH,WindSpeedAvgMPH,GustSpeedMaxMPH,PrecipitationSumIn
2013-1-1,59,53,47,-100,-100,-100,0,0,100,0.00,40.00,0,-999,0,0.00
2013-1-2,42,41,39,-100,-100,-100,0,0,100,0.00,40.00,0,-999,0,0.00
2013-1-3,48,41,36,-100,-100,-100,0,0,100,0.00,40.00,0,-999,0,0.00
2013-1-4,47,42,36,-100,-100,-100,0,0,100,0.00,40.00,0,-999,0,0.00
2013-1-5,44,42,40,-100,-100,-100,0,0,100,0.00,40.00,0,-999,0,0.00
2013-1-6,51,44,40,-100,-100,-100,0,0,100,0.00,40.00,0,-999,0,0.00
2013-1-7,53,43,32,-100,-100,-100,0,0,100,0.00,40.00,0,-999,0,0.00
2013-1-8,60,50,43,-100,-100,-100,0,0,100,0.00,40.00,0,-999,0,0.00
2013-1-9,63,62,59,-100,-100,-100,0,0,100,0.00,40.00,0,-999,0,0.00
2013-1-10,64,62,60,-100,-100,-100,0,0,100,0.00,40.00,0,-999,0,0.00
2013-1-11,71,64,52,-100,-100,-100,0,0,100,0.00,40.00,0,-999,0,0.00
2013-1-12,73,70,66,-100,-100,-100,0,0,100,0.00,40.00,0,-999,0,0.00
2013-1-13,70,52,43,-100,-100,-100,0,0,100,0.00,40.00,0,-999,0,0.00
2013-1-14,42,37,33,-100,-100,-100,0,0,100,0.00,40.00,0,-999,0,0.00
2013-1-15,35,33,32,-100,-100,-100,0,0,100,0.00,40.00,0,-999,0,0.00
2013-1-16,38,34,32,-100,-100,-100,0,0,100,0.00,40.00,0,-999,0,0.00
2013-1-17,53,40,30,-100,-100,-100,0,0,100,0.00,40.00,0,-999,0,0.00
2013-1-18,56,44,34,-100,-100,-100,0,0,100,0.00,40.00,0,-999,0,0.00
2013-1-19,59,45,32,-100,-100,-100,0,0,100,0.00,40.00,0,-999,0,0.00
2013-1-20,64,50,36,-100,-100,-100,0,0,100,0.00,40.00,0,-999,0,0.00
2013-1-21,66,50,40,-100,-100,-100,0,0,100,0.00,40.00,0,-999,0,0.00
2013-1-22,62,48,38,-100,-100,-100,0,0,100,0.00,40.00,0,-999,0,0.00
2013-1-23,72,54,43,-100,-100,-100,0,0,100,0.00,40.00,0,-999,0,0.00
2013-1-24,73,61,51,-100,-100,-100,0,0,100,0.00,40.00,0,-999,0,0.00
2013-1-25,76,64,56,-100,-100,-100,0,0,100,0.00,40.00,0,-999,0,0.00
2013-1-26,75,61,55,-100,-100,-100,0,0,100,0.00,40.00,0,-999,0,0.00
2013-1-27,75,62,47,-100,-100,-100,0,0,100,0.00,40.00,0,-999,0,0.00
2013-1-28,74,67,62,-100,-100,-100,0,0,100,0.00,40.00,0,-999,0,0.00
2013-1-29,75,70,66,-100,-100,-100,0,0,100,0.00,40.00,0,-999,0,0.00
2013-1-30,71,54,41,-100,-100,-100,0,0,100,0.00,40.00,0,-999,0,0.00
2013-1-31,61,52,36,-100,-100,-100,0,0,100,0.00,40.00,0,-999,0,0.00
2013-2-1,55,46,42,-100,-100,-100,0,0,100,0.00,40.00,0,-999,0,0.00
2013-2-2,70,54,36,-100,-100,-100,0,0,100,0.00,40.00,0,-999,0,0.00
2013-2-3,68,56,43,-100,-100,-100,0,0,100,0.00,40.00,0,-999,0,0.00
2013-2-4,63,51,44,-100,-100,-100,0,0,100,0.00,40.00,0,-999,0,0.00
2013-2-5,62,56,54,-100,-100,-100,0,0,100,0.00,40.00,0,-999,0,0.00
2013-2-6,63,56,49,-100,-100,-100,0,0,100,0.00,40.00,0,-999,0,0.00
2013-2-7,65,60,55,-100,-100,-100,0,0,100,0.00,40.00,0,-999,0,0.00
2013-2-8,60,56,47,-100,-100,-100,0,0,100,0.00,40.00,0,-999,0,0.00
2013-2-9,65,55,42,-100,-100,-100,0,0,100,0.00,40.00,0,-999,0,0.00
2013-2-10,72,63,60,-100,-100,-100,0,0,100,0.00,40.00,0,-999,0,0.00
2013-2-11,62,54,49,-100,-100,-100,0,0,100,0.00,40.00,0,-999,0,0.00
2013-2-12,57,52,50,-100,-100,-100,0,0,100,0.00,40.00,0,-999,0,0.00
2013-2-13,54,48,42,-100,-100,-100,0,0,100,0.00,40.00,0,-999,0,0.00
2013-2-14,57,46,34,-100,-100,-100,0,0,100,0.00,40.00,0,-999,0,0.00
2013-2-15,61,48,38,-100,-100,-100,0,0,100,0.00,40.00,0,-999,0,0.00
2013-2-16,51,43,36,-100,-100,-100,0,0,100,0.00,40.00,0,-999,0,0.00
2013-2-17,66,49,32,-100,-100,-100,0,0,100,0.00,40.00,0,-999,0,0.00
2013-2-18,66,57,47,-100,-100,-100,0,0,100,0.00,40.00,0,-999,0,0.00
2013-2-19,62,52,44,-100,-100,-100,0,0,100,0.00,40.00,0,-999,0,0.00
2013-2-20,59,50,42,-100,-100,-100,0,0,100,0.00,40.00,0,-999,0,0.00
2013-2-21,68,59,51,-100,-100,-100,0,0,100,0.00,40.00,0,-999,0,0.00
2013-2-22,60,55,51,-100,-100,-100,0,0,100,0.00,40.00,0,-999,0,0.00
2013-2-23,59,50,44,-100,-100,-100,0,0,100,0.00,40.00,0,-999,0,0.00
2013-2-24,66,54,40,-100,-100,-100,0,0,100,0.00,40.00,0,-999,0,0.00
2013-2-25,68,60,51,-100,-100,-100,0,0,100,0.00,40.00,0,-999,0,0.00
2013-2-26,58,48,43,-100,-100,-100,0,0,100,0.00,40.00,0,-999,0,0.00
2013-2-27,64,50,38,-100,-100,-100,0,0,100,0.00,40.00,0,-999,0,0.00
2013-2-28,52,44,38,-100,-100,-100,0,0,100,0.00,40.00,0,-999,0,0.00
2013-3-1,54,43,36,-100,-100,-100,0,0,100,0.00,40.00,0,-999,0,0.00
2013-3-2,45,37,32,-100,-100,-100,0,0,100,0.00,40.00,0,-999,0,0.00
2013-3-3,61,45,29,-100,-100,-100,0,0,100,0.00,40.00,0,-999,0,0.00
2013-3-4,73,58,41,-100,-100,-100,0,0,100,0.00,40.00,0,-999,0,0.00
2013-3-5,65,59,50,-100,-100,-100,0,0,100,0.00,40.00,0,-999,0,0.00
2013-3-6,60,49,36,-100,-100,-100,0,0,100,0.00,40.00,0,-999,0,0.00
2013-3-7,64,48,35,-100,-100,-100,0,0,100,0.00,40.00,0,-999,0,0.00
2013-3-8,69,50,39,-100,-100,-100,0,0,100,0.00,40.00,0,-999,0,0.00
2013-3-9,69,60,52,-100,-100,-100,0,0,100,0.00,40.00,0,-999,0,0.00
2013-3-10,71,60,52,-100,-100,-100,0,0,100,0.00,40.00,0,-999,0,0.00
2013-3-11,54,48,42,-100,-100,-100,0,0,100,0.00,40.00,0,-999,0,0.00
2013-3-12,63,45,38,-100,-100,-100,0,0,100,0.00,40.00,0,-999,0,0.00
2013-3-13,63,48,43,-100,-100,-100,0,0,100,0.00,40.00,0,-999,0,0.00
2013-3-14,71,53,39,-100,-100,-100,0,0,100,0.00,40.00,0,-999,0,0.00
2013-3-15,79,59,46,-100,-100,-100,0,0,100,0.00,40.00,0,-999,0,0.00
2013-3-16,78,64,51,-100,-100,-100,0,0,100,0.00,40.00,0,-999,0,0.00
2013-3-17,76,64,56,-100,-100,-100,0,0,100,0.00,40.00,0,-999,0,0.00
2013-3-18,87,72,63,-100,-100,-100,0,0,100,0.00,40.00,0,-999,0,0.00
2013-3-19,70,60,51,-100,-100,-100,0,0,100,0.00,40.00,0,-999,0,0.00
2013-3-20,65,56,47,-100,-100,-100,0,0,100,0.00,40.00,0,-999,0,0.00
2013-3-21,66,54,45,-100,-100,-100,0,0,100,0.00,40.00,0,-999,0,0.00
2013-3-22,80,66,54,-100,-100,-100,0,0,100,0.00,40.00,0,-999,0,0.00
2013-3-23,74,66,62,-100,-100,-100,0,0,100,0.00,40.00,0,-999,0,0.00
2013-3-24,58,53,43,-100,-100,-100,0,0,100,0.00,40.00,0,-999,0,0.00
2013-3-25,57,45,33,-100,-100,-100,0,0,100,0.00,40.00,0,-999,0,0.00
2013-3-26,54,42,31,-100,-100,-100,0,0,100,0.00,40.00,0,-999,0,0.00
2013-3-27,68,46,32,-100,-100,-100,0,0,100,0.00,40.00,0,-999,0,0.00
2013-3-28,73,52,39,-100,-100,-100,0,0,100,0.00,40.00,0,-999,0,0.00
2013-3-29,80,62,51,-100,-100,-100,0,0,100,0.00,40.00,0,-999,0,0.00
2013-3-30,79,62,55,-100,-100,-100,0,0,100,0.00,40.00,0,-999,0,0.00
2013-3-31,70,60,56,-100,-100,-100,0,0,100,0.00,40.00,0,-999,0,0.00
2013-4-1,74,61,54,-100,-100,-100,0,0,100,0.00,40.00,0,-999,0,0.00
2013-4-2,77,64,52,-100,-100,-100,0,0,100,0.00,40.00,0,-999,0,0.00
2013-4-3,61,50,44,-100,-100,-100,0,0,100,0.00,40.00,0,-999,0,0.00
2013-4-4,49,45,43,-100,-100,-100,0,0,100,0.00,40.00,0,-999,0,0.00
2013-4-5,71,56,42,-100,-100,-100,0,0,100,0.00,40.00,0,-999,0,0.00
2013-4-6,74,59,47,-100,-100,-100,0,0,100,0.00,40.00,0,-999,0,0.00
2013-4-7,80,65,55,-100,-100,-100,0,0,100,0.00,40.00,0,-999,0,0.00
2013-4-8,80,68,61,-100,-100,-100,0,0,100,0.00,40.00,0,-999,0,0.00
2013-4-9,80,71,65,-100,-100,-100,0,0,100,0.00,40.00,0,-999,0,0.00
2013-4-10,82,74,70,-100,-100,-100,0,0,100,0.00,40.00,0,-999,0,0.00
2013-4-11,58,50,45,-100,-100,-100,0,0,100,0.00,40.00,0,-999,0,0.00
2013-4-12,71,53,44,-100,-100,-100,0,0,100,0.00,40.00,0,-999,0,0.00
2013-4-13,79,63,49,-100,-100,-100,0,0,100,0.00,40.00,0,-999,0,0.00
2013-4-14,78,64,57,-100,-100,-100,0,0,100,0.00,40.00,0,-999,0,0.00
2013-4-15,85,71,63,-100,-100,-100,0,0,100,0.00,40.00,0,-999,0,0.00
2013-4-16,83,76,73,-100,-100,-100,0,0,100,0.00,40.00,0,-999,0,0.00
2013-4-17,88,78,72,-100,-100,-100,0,0,100,0.00,40.00,0,-999,0,0.00
2013-4-18,83,71,51,-100,-100,-100,0,0,100,0.00,40.00,0,-999,0,0.00
2013-4-19,58,48,43,-100,-100,-100,0,0,100,0.00,40.00,0,-999,0,0.00
2013-4-20,67,53,42,-100,-100,-100,0,0,100,0.00,40.00,0,-999,0,0.00
2013-4-21,73,59,45,-100,-100,-100,0,0,100,0.00,40.00,0,-999,0,0.00
2013-4-22,82,64,48,-100,-100,-100,0,0,100,0.00,40.00,0,-999,0,0.00
2013-4-23,85,71,60,-100,-100,-100,0,0,100,0.00,40.00,0,-999,0,0.00
2013-4-24,72,59,50,-100,-100,-100,0,0,100,0.00,40.00,0,-999,0,0.00
2013-4-25,67,56,47,-100,-100,-100,0,0,100,0.00,40.00,0,-999,0,0.00
2013-4-26,79,66,52,-100,-100,-100,0,0,100,0.00,40.00,0,-999,0,0.00
2013-4-27,83,73,67,-100,-100,-100,0,0,100,0.00,40.00,0,-999,0,0.00
2013-4-28,76,68,64,-100,-100,-100,0,0,100,0.00,40.00,0,-999,0,0.00
2013-4-29,81,68,61,-100,-100,-100,0,0,100,0.00,40.00,0,-999,0,0.00
2013-4-30,77,68,62,-100,-100,-100,0,0,100,0.00,40.00,0,-999,0,0.00
2013-5-1,80,68,63,-100,-100,-100,0,0,100,0.00,40.00,0,-999,0,0.00
2013-5-2,69,65,62,-100,-100,-100,0,0,100,0.00,40.00,0,-999,0,0.00
2013-5-3,56,50,44,-100,-100,-100,0,0,100,0.00,40.00,0,-999,0,0.00
2013-5-4,74,62,41,-100,-100,-100,0,0,100,0.00,40.00,0,-999,0,0.00
2013-5-5,63,54,47,-100,-100,-100,0,0,100,0.00,40.00,0,-999,0,0.00
2013-5-6,73,60,47,-100,-100,-100,0,0,100,0.00,40.00,0,-999,0,0.00
2013-5-7,81,68,57,-100,-100,-100,0,0,100,0.00,40.00,0,-999,0,0.00
2013-5-8,87,71,58,-100,-100,-100,0,0,100,0.00,40.00,0,-999,0,0.00
2013-5-9,82,72,62,-100,-100,-100,0,0,100,0.00,40.00,0,-999,0,0.00
2013-5-10,74,68,63,-100,-100,-100,0,0,100,0.00,40.00,0,-999,0,0.00
2013-5-11,79,71,63,-100,-100,-100,0,0,100,0.00,40.00,0,-999,0,0.00
2013-5-12,73,65,58,-100,-100,-100,0,0,100,0.00,40.00,0,-999,0,0.00
2013-5-13,86,66,51,-100,-100,-100,0,0,100,0.00,40.00,0,-999,0,0.00
2013-5-14,87,71,57,-100,-100,-100,0,0,100,0.00,40.00,0,-999,0,0.00
2013-5-15,84,71,59,-100,-100,-100,0,0,100,0.00,40.00,0,-999,0,0.00
2013-5-16,84,73,65,-100,-100,-100,0,0,100,0.00,40.00,0,-999,0,0.00
2013-5-17,91,76,68,-100,-100,-100,0,0,100,0.00,40.00,0,-999,0,0.00
2013-5-18,93,80,73,-100,-100,-100,0,0,100,0.00,40.00,0,-999,0,0.00
2013-5-19,91,80,72,-100,-100,-100,0,0,100,0.00,40.00,0,-999,0,0.00
2013-5-20,93,82,75,-100,-100,-100,0,0,100,0.00,40.00,0,-999,0,0.00
2013-5-21,91,82,75,-100,-100,-100,0,0,100,0.00,40.00,0,-999,0,0.00
2013-5-22,83,72,65,-100,-100,-100,0,0,100,0.00,40.00,0,-999,0,0.00
2013-5-23,91,75,65,-100,-100,-100,0,0,100,0.00,40.00,0,-999,0,0.00
2013-5-24,87,74,66,-100,-100,-100,0,0,100,0.00,40.00,0,-999,0,0.00
2013-5-25,87,76,69,-100,-100,-100,0,0,100,0.00,40.00,0,-999,0,0.00
2013-5-26,87,77,73,-100,-100,-100,0,0,100,0.00,40.00,0,-999,0,0.00
2013-5-27,91,80,70,-100,-100,-100,0,0,100,0.00,40.00,0,-999,0,0.00
2013-5-28,90,78,69,-100,-100,-100,0,0,100,0.00,40.00,0,-999,0,0.00
2013-5-29,90,76,69,-100,-100,-100,0,0,100,0.00,40.00,0,-999,0,0.00
2013-5-30,91,82,72,-100,-100,-100,0,0,100,0.00,40.00,0,-999,0,0.00
2013-5-31,90,81,73,-100,-100,-100,0,0,100,0.00,40.00,0,-999,0,0.00
2013-6-1,94,83,75,-100,-100,-100,0,0,100,0.00,40.00,0,-999,0,0.00
2013-6-2,83,77,71,-100,-100,-100,0,0,100,0.00,40.00,0,-999,0,0.00
2013-6-3,84,76,70,-100,-100,-100,0,0,100,0.00,40.00,0,-999,0,0.00
2013-6-4,89,79,70,-100,-100,-100,0,0,100,0.00,40.00,0,-999,0,0.00
2013-6-5,99,82,74,-100,-100,-100,0,0,100,0.00,40.00,0,-999,0,0.00
2013-6-6,80,76,71,-100,-100,-100,0,0,100,0.00,40.00,0,-999,0,0.00
2013-6-7,83,74,68,-100,-100,-100,0,0,100,0.00,40.00,0,-999,0,0.00
2013-6-8,91,76,69,-100,-100,-100,0,0,100,0.00,40.00,0,-999,0,0.00
2013-6-9,92,77,69,-100,-100,-100,0,0,100,0.00,40.00,0,-999,0,0.00
2013-6-10,95,80,69,-100,-100,-100,0,0,100,0.00,40.00,0,-999,0,0.00
2013-6-11,97,84,73,-100,-100,-100,0,0,100,0.00,40.00,0,-999,0,0.00
2013-6-12,94,84,75,-100,-100,-100,0,0,100,0.00,40.00,0,-999,0,0.00
2013-6-13,94,84,75,-100,-100,-100,0,0,100,0.00,40.00,0,-999,0,0.00
2013-6-14,92,83,76,-100,-100,-100,0,0,100,0.00,40.00,0,-999,0,0.00
2013-6-15,91,80,69,-100,-100,-100,0,0,100,0.00,40.00,0,-999,0,0.00
2013-6-16,96,85,76,-100,-100,-100,0,0,100,0.00,40.00,0,-999,0,0.00
2013-6-17,96,85,74,-100,-100,-100,0,0,100,0.00,40.00,0,-999,0,0.00
2013-6-18,85,77,72,-100,-100,-100,0,0,100,0.00,40.00,0,-999,0,0.00
2013-6-19,85,76,71,-100,-100,-100,0,0,100,0.00,40.00,0,-999,0,0.00
2013-6-20,88,80,71,-100,-100,-100,0,0,100,0.00,40.00,0,-999,0,0.00
2013-6-22,98,90,80,-100,-100,-100,0,0,100,0.00,40.00,0,-999,0,0.00
2013-6-23,98,81,72,-100,-100,-100,0,0,100,0.00,40.00,0,-999,0,0.00
2013-6-24,94,82,75,-100,-100,-100,0,0,100,0.00,40.00,0,-999,0,0.00
2013-6-25,94,81,73,-100,-100,-100,0,0,100,0.00,40.00,0,-999,0,0.00
2013-6-26,98,85,74,-100,-100,-100,0,0,100,0.00,40.00,0,-999,0,0.00
2013-6-27,98,82,73,-100,-100,-100,0,0,100,0.00,40.00,0,-999,0,0.00
2013-6-28,98,82,75,-100,-100,-100,0,0,100,0.00,40.00,0,-999,0,0.00
2013-6-29,95,84,75,-100,-100,-100,0,0,100,0.00,40.00,0,-999,0,0.00
2013-6-30,89,80,70,-100,-100,-100,0,0,100,0.00,40.00,0,-999,0,0.00
2013-7-1,85,76,66,-100,-100,-100,0,0,100,0.00,40.00,0,-999,0,0.00
2013-7-2,87,76,66,-100,-100,-100,0,0,100,0.00,40.00,0,-999,0,0.00
2013-7-3,90,78,64,-100,-100,-100,0,0,100,0.00,40.00,0,-999,0,0.00
2013-7-4,89,77,66,-100,-100,-100,0,0,100,0.00,40.00,0,-999,0,0.00
2013-7-5,91,79,67,-100,-100,-100,0,0,100,0.00,40.00,0,-999,0,0.00
2013-7-6,93,78,67,-100,-100,-100,0,0,100,0.00,40.00,0,-999,0,0.00
2013-7-7,94,79,74,-100,-100,-100,0,0,100,0.00,40.00,0,-999,0,0.00
2013-7-8,91,79,73,-100,-100,-100,0,0,100,0.00,40.00,0,-999,0,0.00
2013-7-9,95,83,73,-100,-100,-100,0,0,100,0.00,40.00,0,-999,0,0.00
2013-7-10,98,84,75,-100,-100,-100,0,0,100,0.00,40.00,0,-999,0,0.00
2013-7-11,86,79,74,-100,-100,-100,0,0,100,0.00,40.00,0,-999,0,0.00
2013-7-12,94,81,72,-100,-100,-100,0,0,100,0.00,40.00,0,-999,0,0.00
2013-7-13,90,78,65,-100,-100,-100,0,0,100,0.00,40.00,0,-999,0,0.00
2013-7-14,93,76,67,-100,-100,-100,0,0,100,0.00,40.00,0,-999,0,0.00
2013-7-15,94,76,69,-100,-100,-100,0,0,100,0.00,40.00,0,-999,0,0.00
2013-7-16,91,79,72,-100,-100,-100,0,0,100,0.00,40.00,0,-999,0,0.00
2013-7-17,96,82,72,-100,-100,-100,0,0,100,0.00,40.00,0,-999,0,0.00
2013-7-18,94,76,70,-100,-100,-100,0,0,100,0.00,40.00,0,-999,0,0.00
2013-7-19,95,78,70,-100,-100,-100,0,0,100,0.00,40.00,0,-999,0,0.00
2013-7-20,98,80,70,-100,-100,-100,0,0,100,0.00,40.00,0,-999,0,0.00
2013-7-21,91,80,72,-100,-100,-100,0,0,100,0.00,40.00,0,-999,0,0.00
2013-7-22,95,83,74,-100,-100,-100,0,0,100,0.00,40.00,0,-999,0,0.00
2013-7-23,93,82,76,-100,-100,-100,0,0,100,0.00,40.00,0,-999,0,0.00
2013-7-24,92,80,74,-100,-100,-100,0,0,100,0.00,40.00,0,-999,0,0.00
2013-7-25,98,82,73,-100,-100,-100,0,0,100,0.00,40.00,0,-999,0,0.00
2013-7-26,97,83,73,-100,-100,-100,0,0,100,0.00,40.00,0,-999,0,0.00
2013-7-27,84,78,75,-100,-100,-100,0,0,100,0.00,40.00,0,-999,0,0.00
2013-7-28,96,82,70,-100,-100,-100,0,0,100,0.00,40.00,0,-999,0,0.00
2013-7-29,97,85,73,-100,-100,-100,0,0,100,0.00,40.00,0,-999,0,0.00
2013-7-30,101,84,73,-100,-100,-100,0,0,100,0.00,40.00,0,-999,0,0.00
2013-7-31,102,83,74,-100,-100,-100,0,0,100,0.00,40.00,0,-999,0,0.00
2013-8-1,94,84,76,-100,-100,-100,0,0,100,0.00,40.00,0,-999,0,0.00
2013-8-2,100,84,73,-100,-100,-100,0,0,100,0.00,40.00,0,-999,0,0.00
2013-8-3,98,84,76,-100,-100,-100,0,0,100,0.00,40.00,0,-999,0,0.00
2013-8-4,100,85,74,-100,-100,-100,0,0,100,0.00,40.00,0,-999,0,0.00
2013-8-5,101,85,76,-100,-100,-100,0,0,100,0.00,40.00,0,-999,0,0.00
2013-8-6,105,86,76,-100,-100,-100,0,0,100,0.00,40.00,0,-999,0,0.00
2013-8-7,102,86,77,-100,-100,-100,0,0,100,0.00,40.00,0,-999,0,0.00
2013-8-8,102,86,73,-100,-100,-100,0,0,100,0.00,40.00,0,-999,0,0.00
2013-8-9,100,87,76,-100,-100,-100,0,0,100,0.00,40.00,0,-999,0,0.00
2013-8-10,96,82,75,-100,-100,-100,0,0,100,0.00,40.00,0,-999,0,0.00
2013-8-11,98,83,73,-100,-100,-100,0,0,100,0.00,40.00,0,-999,0,0.00
2013-8-12,94,81,73,-100,-100,-100,0,0,100,0.00,40.00,0,-999,0,0.00
2013-8-13,94,82,73,-100,-100,-100,0,0,100,0.00,40.00,0,-999,0,0.00
2013-8-14,89,76,73,-100,-100,-100,0,0,100,0.00,40.00,0,-999,0,0.00
2013-8-15,86,76,67,-100,-100,-100,0,0,100,0.00,40.00,0,-999,0,0.00
2013-8-16,84,76,67,-100,-100,-100,0,0,100,0.00,40.00,0,-999,0,0.00
2013-8-17,85,75,65,-100,-100,-100,0,0,100,0.00,40.00,0,-999,0,0.00
2013-8-18,85,77,69,-100,-100,-100,0,0,100,0.00,40.00,0,-999,0,0.00
2013-8-19,87,76,67,-100,-100,-100,0,0,100,0.00,40.00,0,-999,0,0.00
2013-8-20,91,76,68,-100,-100,-100,0,0,100,0.00,40.00,0,-999,0,0.00
2013-8-21,89,78,72,-100,-100,-100,0,0,100,0.00,40.00,0,-999,0,0.00
2013-8-22,93,82,72,-100,-100,-100,0,0,100,0.00,40.00,0,-999,0,0.00
2013-8-23,91,83,73,-100,-100,-100,0,0,100,0.00,40.00,0,-999,0,0.00
2013-8-24,91,80,71,-100,-100,-100,0,0,100,0.00,40.00,0,-999,0,0.00
2013-8-25,88,79,70,-100,-100,-100,0,0,100,0.00,40.00,0,-999,0,0.00
2013-8-26,90,78,72,-100,-100,-100,0,0,100,0.00,40.00,0,-999,0,0.00
2013-8-27,91,75,71,-100,-100,-100,0,0,100,0.00,40.00,0,-999,0,0.00
2013-8-28,94,86,73,-100,-100,-100,0,0,100,0.00,40.00,0,-999,0,0.00
2013-8-29,93,80,69,-100,-100,-100,0,0,100,0.00,40.00,0,-999,0,0.00
2013-8-30,94,81,69,-100,-100,-100,0,0,100,0.00,40.00,0,-999,0,0.00
2013-8-31,98,84,71,-100,-100,-100,0,0,100,0.00,40.00,0,-999,0,0.00
2013-9-1,98,84,73,-100,-100,-100,0,0,100,0.00,40.00,0,-999,0,0.00
2013-9-2,101,84,74,-100,-100,-100,0,0,100,0.00,40.00,0,-999,0,0.00
2013-9-3,95,84,76,-100,-100,-100,0,0,100,0.00,40.00,0,-999,0,0.00
2013-9-4,95,85,72,-100,-100,-100,0,0,100,0.00,40.00,0,-999,0,0.00
2013-9-5,95,84,73,-100,-100,-100,0,0,100,0.00,40.00,0,-999,0,0.00
2013-9-6,96,84,71,-100,-100,-100,0,0,100,0.00,40.00,0,-999,0,0.00
2013-9-7,96,81,72,-100,-100,-100,0,0,100,0.00,40.00,0,-999,0,0.00
2013-9-8,96,82,69,-100,-100,-100,0,0,100,0.00,40.00,0,-999,0,0.00
2013-9-9,96,80,68,-100,-100,-100,0,0,100,0.00,40.00,0,-999,0,0.00
2013-9-10,97,82,70,-100,-100,-100,0,0,100,0.00,40.00,0,-999,0,0.00
2013-9-11,95,81,70,-100,-100,-100,0,0,100,0.00,40.00,0,-999,0,0.00
2013-9-12,96,81,69,-100,-100,-100,0,0,100,0.00,40.00,0,-999,0,0.00
2013-9-13,96,82,71,-100,-100,-100,0,0,100,0.00,40.00,0,-999,0,0.00
2013-9-14,90,77,68,-100,-100,-100,0,0,100,0.00,40.00,0,-999,0,0.00
2013-9-15,92,78,66,-100,-100,-100,0,0,100,0.00,40.00,0,-999,0,0.00
2013-9-16,93,80,69,-100,-100,-100,0,0,100,0.00,40.00,0,-999,0,0.00
2013-9-17,95,80,70,-100,-100,-100,0,0,100,0.00,40.00,0,-999,0,0.00
2013-9-18,82,75,71,-100,-100,-100,0,0,100,0.00,40.00,0,-999,0,0.00
2013-9-19,96,82,73,-100,-100,-100,0,0,100,0.00,40.00,0,-999,0,0.00
2013-9-20,86,77,69,-100,-100,-100,0,0,100,0.00,40.00,0,-999,0,0.00
2013-9-21,73,71,69,-100,-100,-100,0,0,100,0.00,40.00,0,-999,0,0.00
2013-9-22,78,69,60,-100,-100,-100,0,0,100,0.00,40.00,0,-999,0,0.00
2013-9-23,86,74,62,-100,-100,-100,0,0,100,0.00,40.00,0,-999,0,0.00
2013-9-24,83,78,73,-100,-100,-100,0,0,100,0.00,40.00,0,-999,0,0.00
2013-9-25,87,77,65,-100,-100,-100,0,0,100,0.00,40.00,0,-999,0,0.00
2013-9-26,90,75,62,-100,-100,-100,0,0,100,0.00,40.00,0,-999,0,0.00
2013-9-27,87,74,64,-100,-100,-100,0,0,100,0.00,40.00,0,-999,0,0.00
2013-9-28,91,78,68,-100,-100,-100,0,0,100,0.00,40.00,0,-999,0,0.00
2013-9-29,73,72,70,-100,-100,-100,0,0,100,0.00,40.00,0,-999,0,0.00
2013-9-30,76,72,68,-100,-100,-100,0,0,100,0.00,40.00,0,-999,0,0.00
2013-10-1,75,74,74,-100,-100,-100,0,0,100,0.00,40.00,0,-999,0,0.00
2013-10-2,87,76,69,-100,-100,-100,0,0,100,0.00,40.00,0,-999,0,0.00
2013-10-3,87,78,70,-100,-100,-100,0,0,100,0.00,40.00,0,-999,0,0.00
2013-10-4,91,78,73,-100,-100,-100,0,0,100,0.00,40.00,0,-999,0,0.00
2013-10-5,87,76,71,-100,-100,-100,0,0,100,0.00,40.00,0,-999,0,0.00
2013-10-6,75,66,59,-100,-100,-100,0,0,100,0.00,40.00,0,-999,0,0.00
2013-10-7,74,62,53,-100,-100,-100,0,0,100,0.00,40.00,0,-999,0,0.00
2013-10-8,74,62,53,-100,-100,-100,0,0,100,0.00,40.00,0,-999,0,0.00
2013-10-9,79,65,54,-100,-100,-100,0,0,100,0.00,40.00,0,-999,0,0.00
2013-10-10,77,66,56,-100,-100,-100,0,0,100,0.00,40.00,0,-999,0,0.00
2013-10-11,87,73,58,-100,-100,-100,0,0,100,0.00,40.00,0,-999,0,0.00
2013-10-12,88,74,68,-100,-100,-100,0,0,100,0.00,40.00,0,-999,0,0.00
2013-10-13,81,74,68,-100,-100,-100,0,0,100,0.00,40.00,0,-999,0,0.00
2013-10-14,84,74,68,-100,-100,-100,0,0,100,0.00,40.00,0,-999,0,0.00
2013-10-15,85,78,67,-100,-100,-100,0,0,100,0.00,40.00,0,-999,0,0.00
2013-10-16,81,72,64,-100,-100,-100,0,0,100,0.00,40.00,0,-999,0,0.00
2013-10-17,68,62,58,-100,-100,-100,0,0,100,0.00,40.00,0,-999,0,0.00
2013-10-18,65,59,54,-100,-100,-100,0,0,100,0.00,40.00,0,-999,0,0.00
2013-10-19,68,59,51,-100,-100,-100,0,0,100,0.00,40.00,0,-999,0,0.00
2013-10-20,72,57,44,-100,-100,-100,0,0,100,0.00,40.00,0,-999,0,0.00
2013-10-21,72,62,51,-100,-100,-100,0,0,100,0.00,40.00,0,-999,0,0.00
2013-10-22,68,62,57,-100,-100,-100,0,0,100,0.00,40.00,0,-999,0,0.00
2013-10-23,73,61,51,-100,-100,-100,0,0,100,0.00,40.00,0,-999,0,0.00
2013-10-24,80,65,51,-100,-100,-100,0,0,100,0.00,40.00,0,-999,0,0.00
2013-10-25,64,57,49,-100,-100,-100,0,0,100,0.00,40.00,0,-999,0,0.00
2013-10-26,77,61,42,-100,-100,-100,0,0,100,0.00,40.00,0,-999,0,0.00
2013-10-27,76,64,55,-100,-100,-100,0,0,100,0.00,40.00,0,-999,0,0.00
2013-10-28,75,66,60,-100,-100,-100,0,0,100,0.00,40.00,0,-999,0,0.00
2013-10-29,83,73,62,-100,-100,-100,0,0,100,0.00,40.00,0,-999,0,0.00
2013-10-30,76,69,63,-100,-100,-100,0,0,100,0.00,40.00,0,-999,0,0.00
2013-10-31,73,69,62,-100,-100,-100,0,0,100,0.00,40.00,0,-999,0,0.00
2013-11-1,73,66,55,-100,-100,-100,0,0,100,0.00,40.00,0,-999,0,0.00
2013-11-2,69,60,52,-100,-100,-100,0,0,100,0.00,40.00,0,-999,0,0.00
2013-11-3,65,56,44,-100,-100,-100,0,0,100,0.00,40.00,0,-999,0,0.00
2013-11-4,74,61,44,-100,-100,-100,0,0,100,0.00,40.00,0,-999,0,0.00
2013-11-5,77,66,57,-100,-100,-100,0,0,100,0.00,40.00,0,-999,0,0.00
2013-11-6,76,69,59,-100,-100,-100,0,0,100,0.00,40.00,0,-999,0,0.00
2013-11-7,58,52,45,-100,-100,-100,0,0,100,0.00,40.00,0,-999,0,0.00
2013-11-8,61,52,43,-100,-100,-100,0,0,100,0.00,40.00,0,-999,0,0.00
2013-11-9,64,56,47,-100,-100,-100,0,0,100,0.00,40.00,0,-999,0,0.00
2013-11-10,69,58,49,-100,-100,-100,0,0,100,0.00,40.00,0,-999,0,0.00
2013-11-11,73,58,45,-100,-100,-100,0,0,100,0.00,40.00,0,-999,0,0.00
2013-11-12,58,48,37,-100,-100,-100,0,0,100,0.00,40.00,0,-999,0,0.00
2013-11-13,51,41,31,-100,-100,-100,0,0,100,0.00,40.00,0,-999,0,0.00
2013-11-14,58,44,29,-100,-100,-100,0,0,100,0.00,40.00,0,-999,0,0.00
2013-11-15,74,60,47,-100,-100,-100,0,0,100,0.00,40.00,0,-999,0,0.00
2013-11-16,77,69,62,-100,-100,-100,0,0,100,0.00,40.00,0,-999,0,0.00
2013-11-17,85,75,69,-100,-100,-100,0,0,100,0.00,40.00,0,-999,0,0.00
2013-11-18,74,68,53,-100,-100,-100,0,0,100,0.00,40.00,0,-999,0,0.00
2013-11-19,64,53,44,-100,-100,-100,0,0,100,0.00,40.00,0,-999,0,0.00
2013-11-20,69,53,38,-100,-100,-100,0,0,100,0.00,40.00,0,-999,0,0.00
2013-11-21,72,60,48,-100,-100,-100,0,0,100,0.00,40.00,0,-999,0,0.00
2013-11-22,67,65,59,-100,-100,-100,0,0,100,0.00,40.00,0,-999,0,0.00
2013-11-23,57,45,40,-100,-100,-100,0,0,100,0.00,40.00,0,-999,0,0.00
2013-11-24,43,39,34,-100,-100,-100,0,0,100,0.00,40.00,0,-999,0,0.00
2013-11-25,38,36,33,-100,-100,-100,0,0,100,0.00,40.00,0,-999,0,0.00
2013-11-26,40,38,36,-100,-100,-100,0,0,100,0.00,40.00,0,-999,0,0.00
2013-11-27,44,38,32,-100,-100,-100,0,0,100,0.00,40.00,0,-999,0,0.00
2013-11-28,47,36,28,-100,-100,-100,0,0,100,0.00,40.00,0,-999,0,0.00
2013-11-29,56,38,28,-100,-100,-100,0,0,100,0.00,40.00,0,-999,0,0.00
2013-11-30,63,47,29,-100,-100,-100,0,0,100,0.00,40.00,0,-999,0,0.00
2013-12-1,69,56,41,-100,-100,-100,0,0,100,0.00,40.00,0,-999,0,0.00
2013-12-2,74,65,57,-100,-100,-100,0,0,100,0.00,40.00,0,-999,0,0.00
2013-12-3,76,68,58,-100,-100,-100,0,0,100,0.00,40.00,0,-999,0,0.00
2013-12-4,80,72,66,-100,-100,-100,0,0,100,0.00,40.00,0,-999,0,0.00
2013-12-5,80,68,44,-100,-100,-100,0,0,100,0.00,40.00,0,-999,0,0.00
2013-12-6,45,39,33,-100,-100,-100,0,0,100,0.00,40.00,0,-999,0,0.00
2013-12-7,34,31,29,-100,-100,-100,0,0,100,0.00,40.00,0,-999,0,0.00
2013-12-8,40,34,29,-100,-100,-100,0,0,100,0.00,40.00,0,-999,0,0.00
2013-12-9,40,38,35,-100,-100,-100,0,0,100,0.00,40.00,0,-999,0,0.00
2013-12-10,43,36,32,-100,-100,-100,0,0,100,0.00,40.00,0,-999,0,0.00
2013-12-11,50,41,31,-100,-100,-100,0,0,100,0.00,40.00,0,-999,0,0.00
2013-12-12,49,38,31,-100,-100,-100,0,0,100,0.00,40.00,0,-999,0,0.00
2013-12-13,55,47,35,-100,-100,-100,0,0,100,0.00,40.00,0,-999,0,0.00
2013-12-14,59,52,42,-100,-100,-100,0,0,100,0.00,40.00,0,-999,0,0.00
2013-12-15,49,41,35,-100,-100,-100,0,0,100,0.00,40.00,0,-999,0,0.00
2013-12-16,61,44,31,-100,-100,-100,0,0,100,0.00,40.00,0,-999,0,0.00
2013-12-17,69,48,32,-100,-100,-100,0,0,100,0.00,40.00,0,-999,0,0.00
2013-12-18,69,51,36,-100,-100,-100,0,0,100,0.00,40.00,0,-999,0,0.00
2013-12-19,73,60,43,-100,-100,-100,0,0,100,0.00,40.00,0,-999,0,0.00
2013-12-20,75,68,62,-100,-100,-100,0,0,100,0.00,40.00,0,-999,0,0.00
2013-12-21,73,68,57,-100,-100,-100,0,0,100,0.00,40.00,0,-999,0,0.00
2013-12-22,60,52,40,-100,-100,-100,0,0,100,0.00,40.00,0,-999,0,0.00
2013-12-23,45,38,32,-100,-100,-100,0,0,100,0.00,40.00,0,-999,0,0.00
2013-12-24,48,37,29,-100,-100,-100,0,0,100,0.00,40.00,0,-999,0,0.00
2013-12-25,50,38,28,-100,-100,-100,0,0,100,0.00,40.00,0,-999,0,0.00
2013-12-26,54,45,35,-100,-100,-100,0,0,100,0.00,40.00,0,-999,0,0.00
2013-12-27,51,46,40,-100,-100,-100,0,0,100,0.00,40.00,0,-999,0,0.00
2013-12-28,47,44,40,-100,-100,-100,0,0,100,0.00,40.00,0,-999,0,0.00
2013-12-29,59,48,32,-100,-100,-100,0,0,100,0.00,40.00,0,-999,0,0.00
2013-12-30,47,44,41,-100,-100,-100,0,0,100,0.00,40.00,0,-999,0,0.00
2013-12-31,45,40,36,-100,-100,-100,0,0,100,0.00,40.00,0,-999,0,0.00
2014-1-1,61,47,40,-100,-100,-100,0,0,100,0.00,40.00,0,-999,0,0.00
2014-1-2,55,47,35,-100,-100,-100,0,0,100,0.00,40.00,0,-999,0,0.00